User: anonymous   Login
Location: Unspecified
(0.0000°N, 0.0000°E)
Time: 06:09:06
(UTC+00:00)
Language:

BEESAT 3 - Orbit

View from above orbital plane
View from above orbital plane
View from above satellite
View from above satellite

Ground track
Ground track

The orbit data is extracted from the following two-line orbital elements,

1 39134U 13015E   17296.55111245 +.00002008 +00000-0 +10559-3 0  9992
2 39134 064.8651 171.9652 0035523 244.5229 115.2222 15.18351582248580
Epoch (UTC): 23 October 2017 13:13:36
Eccentricity: 0.0035523
inclination: 64.8651°
perigee height: 486 km
apogee height: 535 km
right ascension of ascending node: 171.9652°
argument of perigee: 244.5229°
revolutions per day: 15.18351582
mean anomaly at epoch: 115.2222°
orbit number at epoch: 24858

The dashed part of the orbit path shows where the satellite is in the earth's shadow,  

DLR